THOR ABLESTAR DEB, 138

Orbit data source: Space-Track

THOR ABLESTAR DEB, 138 is space debris in LEO originally from a launch on Thu, 29 Jun 1961 UTC launched from the Air Force Eastern Test Range (AFETR). Debris objects in space refer to the collection of defunct objects orbiting the Earth. Examples of debris include non-operational satellites, rocket bodies, and fragments generated from explosions, collisions, or faulty payload assembly.

Loading next visibility...
THOR ABLESTAR DEB details
Identifier
138, 1961-015Y
Orbit
LEO
Last TLE update23 hours ago
Origin
Flag of USUSAF SSD (US)
ManufacturerUnknown
MissionSpacecraft
Bus & MotorUnknown
MassUnknown
Launch date (UTC)
1961-06-29 (64 years ago)
Launch vehicleUnknown
Launch site
Air Force Eastern Test Range (AFETR)
Object type
Payload
Rocket body
Debris
Shape & HBRUnknown
Radar Cross SectionSmall (<0.1 m²)

Expand to show TLE details & history

TLE from 23 hours ago
0 THOR ABLESTAR DEB
1 00138U 61015Y   25014.25094155  .00000809  00000-0  55851-3 0  9992
2 00138  67.1553 299.0300 0029933 175.7696 184.3651 14.03913902229969
Epoch: 2025-01-14T06:01Z
Definitive object data (Epoch: 2025-01-14T06:01:21.349Z)
Latitude-0.00007°
Longitude94.73069°
Altitude904.056 km
Speed7.389 km/s
True Right ascension19h 56m 07s
True Declination0° 00' 00"
Sunlit
Object was in daylight at TLE epoch
Visualization TLE readout
Latitude58.33867°
Longitude135.23011°
Altitude895.864 km
Speed7.407 km/s
Apparent Right ascension19h 31m 38s
Apparent Declination17° 28' 40"
Sunlit
Object is in daylight
Visualization observer readout
Local Sidereal Time05:13:16
Azimuth323.591° NNW
Elevation-24.176°
Doppler factor1
Orbital elements
Apogee altitude900.338 km
Perigee altitude856.895 km
Semi-major axis7,256.753 km
Eccentricity0.0029933
Inclination67.1553°
RAAN299.03°
Arg. of periapsis175.7696°
True anomaly184.33909°
Mean anomaly184.3651°
Eccentric anomaly184.35209°
Mean motion3.51099 °/min
BSTAR0.00055851
Orbital period102.54 mins
Loading maneuver chart data...

THOR ABLESTAR DEB Visibility forecast

Observer location: undefined°, undefined

Span
Click to sort rows by Start time (UTC) header in descending order
Start Az.
Max El. time (UTC)
Max El. Az.
Max El.
End time (UTC)
End Az.
10 mins2025-01-15 04:47:12.392Z347.827° N2025-01-15 04:52:12.392Z53.922° ENE30.913°2025-01-15 04:57:12.392Z118.787° SE
8 mins2025-01-15 06:34:12.392Z301.605° NW2025-01-15 06:37:12.392Z256.19° W28.986°2025-01-15 06:42:12.392Z189.79° SSW
9 mins2025-01-15 19:46:12.392Z180.808° SSW2025-01-15 19:50:12.392Z109.847° ESE38.268°2025-01-15 19:55:12.392Z39.917° NE
8 mins2025-01-15 21:32:12.392Z263.513° W2025-01-15 21:36:12.392Z317.991° NNW24.26°2025-01-15 21:40:12.392Z4.773° NNE
|